Regional Weather Roundup
Issued by NWS Albany, NY

Home | Current Version | Previous Version | Text Only | Print | Product List | Glossary On
Versions: 1 2 3 4 5 6 7 8 9 10 11 12 13 14 15 16 17 18 19 20 21 22 23 24 25 26 27 28 29 30 31 32 33 34 35 36 37 38 39 40 41 42 43 44 45 46 47 48 49 50
000
ASUS41 KALY 311310
RWRALY

NEW YORK STATE HOURLY WEATHER ROUNDUP
NATIONAL WEATHER SERVICE ALBANY NY
900 AM EDT THU JUL 31 2014

NOTE: "FAIR" INDICATES FEW OR NO CLOUDS BELOW 12,000 FEET WITH NO
SIGNIFICANT WEATHER AND/OR NO OBSTRUCTIONS TO VISIBILITY.

NYZ032-033-038>043-046>054-057>066-NYZ062>081-311400-
EAST


CITY           SKY/WX    TMP DP  RH WIND       PRES   REMARKS
ALBANY         CLOUDY    64  57  78 S8        30.07S
GLENS FALLS    PTSUNNY   64  58  80 S7        30.06R
POUGHKEEPSIE   CLOUDY    64  59  83 SE3       30.08F
NEWBURGH       CLOUDY    64  59  82 CALM      30.11S
MONTGOMERY     CLOUDY    62  58  86 CALM      30.09S
WHITE PLAINS   LGT RAIN  71  59  65 W8        30.11R
ISLIP          SUNNY     76  59  55 SW10      30.10S
NEW YORK CITY  PTSUNNY   74  55  51 SW12      30.10R
CENTRAL PARK   PTSUNNY   71  56  58 VRB6G20   30.14R
$$

NYZ005>009-017-018-044>046-055-056-311400-
CENTRAL


CITY           SKY/WX    TMP DP  RH WIND       PRES   REMARKS
FULTON         CLOUDY    59  56  89 S3        30.00F
SYRACUSE       TSTM      59  58  96 S5        30.02S
ROME           HVY RAIN  61  58  90 W17G23    30.07R FOG
ELMIRA         CLOUDY    59  57  93 CALM      30.05F
BINGHAMTON     CLOUDY    61  55  82 SW6       30.07R
MONTICELLO     CLOUDY    59  57  94 CALM      30.11F
$$

NYZ026>034-041>043-311400-
NORTH


CITY           SKY/WX    TMP DP  RH WIND       PRES   REMARKS
WATERTOWN      CLOUDY    62  56  80 S6        30.01R
FORT DRUM      NOT AVBL
MASSENA        MOSUNNY   63  58  83 SE3       30.00F
SARANAC LAKE   MOSUNNY   61  54  77 CALM      30.03S
PLATTSBURGH    MOSUNNY   65  58  78 CALM      30.02F
$$

NYZ001>004-010>016-019>021-311400-
WEST


CITY           SKY/WX    TMP DP  RH WIND       PRES   REMARKS
NIAGARA FALLS  PTSUNNY   64  60  87 S6        29.99F
BUFFALO        PTSUNNY   62  57  83 S9        30.01S
DUNKIRK        PTSUNNY   63  59  87 S7        30.01F
JAMESTOWN      CLOUDY    59  55  88 SW6       30.06R
WELLSVILLE     CLOUDY    61  54  77 VRB5      30.08S
ROCHESTER      CLOUDY    62  58  86 SW12      30.01S
PENN YAN       PTSUNNY   62  57  83 S10       30.03F
$$

             KEY
       WCI = WIND CHILL INDEX
       VSB = VISIBILITY
       HX  = HEAT INDEX
$$



USA.gov is the U.S. government's official web portal to all federal, state and local government web resources and services.